Location: Brachbach
(49.1847°N, 9.7240°E)
Time: 13:25:17
(UTC+00:00)

CZ-2C R/B - Pass Details

Date: 06 August 2024
Orbit: 782 x 869 km, 98.3° (Epoch: 15 September)

Event Time Altitude Azimuth Distance (km) Brightness Sun altitude
Exits shadow 02:06:21 23° 222° (SW) 1,735 3.7 -15.4°
Maximum altitude 02:08:46 33° 265° (W) 1,412 3.5 -15.1°
Drops below altitude 10° 02:13:43 10° 329° (NNW) 2,480 5.4 -14.6°
Sets 02:16:20 0° 339° (NNW) 3,407 6.2 -14.3°
